Location: The Saddle
(36.8333°N, 80.3417°W)
Time: 10:32:09
(UTC-05:00)

S-56A Canister/Altair - Pass Details

Date: 12 December 2023
Orbit: 640 x 2488 km, 38.9° (Epoch: 25 February)

Event Time Altitude Azimuth Distance (km) Brightness Sun altitude
Rises 12:37:00 0° 280° (W) 3,275 10.7 29.8°
Reaches altitude 10° 12:39:38 10° 282° (WNW) 2,199 9.9 29.8°
Maximum altitude 12:44:28 75° 8° (N) 670 7.5 29.7°
Drops below altitude 10° 12:48:57 10° 94° (E) 2,042 9.8 29.5°
Sets 12:51:19 0° 97° (E) 3,017 10.6 29.5°
